Location: Fountain Hills
(33.6120°N, 111.7170°W)
Time: 16:39:18
(UTC-07:00)

Hamsat - Visible Passes

Search period start: 30 October 2014 00:00
Search period end: 09 November 2014 00:00
Orbit: 592 x 629 km, 97.6° (Epoch: 30 October)

Date Brightness Start Highest point End Pass type
(mag) Time Alt. Az. Time Alt. Az. Time Alt. Az.
30 Oct ? 06:12:49 10° NNE 06:17:03 85° ESE 06:21:18 10° S visible
30 Oct ? 18:39:46 10° SW 18:42:07 15° W 18:44:29 10° WNW visible
01 Nov ? 05:07:34 10° ENE 05:09:26 13° E 05:11:18 10° ESE visible
02 Nov ? 05:20:45 10° NE 05:23:47 19° E 05:26:49 10° SE visible
03 Nov ? 05:34:26 10° NE 05:38:06 28° E 05:41:46 10° SSE visible
03 Nov ? 17:59:04 10° S 18:03:02 42° W 18:07:00 10° NNW visible
04 Nov ? 05:48:21 10° NNE 05:52:23 42° E 05:56:26 10° S visible
04 Nov ? 18:13:42 10° SSW 18:17:18 28° W 18:20:55 10° NW visible
05 Nov ? 06:02:24 10° NNE 06:06:38 64° E 06:10:53 10° S visible
05 Nov ? 18:28:36 10° SW 18:31:36 19° W 18:34:35 10° NW visible
06 Nov ? 06:16:34 10° N 06:20:51 84° WNW 06:25:08 10° SSW visible
06 Nov ? 18:44:02 10° WSW 18:45:54 13° W 18:47:46 10° WNW visible
08 Nov ? 05:10:45 10° ENE 05:13:09 15° E 05:15:33 10° SE visible
